Location: Carlisle
(34.5501°N, 84.5969°W)
Time: 20:30:31
(UTC+00:00)

FO-29 - Pass Details

Date: 08 April 2023
Orbit: 799 x 1322 km, 98.5° (Epoch: 08 June)

Event Time Altitude Azimuth Distance (km) Brightness Sun altitude
Rises 09:55:37 0° 19° (NNE) 4,104 13.4 -16.8°
Reaches altitude 10° 09:58:32 10° 25° (NNE) 3,066 12.8 -16.3°
Maximum altitude 10:05:08 45° 97° (E) 1,401 10.8 -15.0°
Drops below altitude 10° 10:10:57 10° 169° (S) 2,702 11.7 -13.9°
Sets 10:13:22 0° 176° (S) 3,576 12.3 -13.4°
